EW2590 Weather Reports


time (UTC)temp
C
wind
direction
speed
KPH
gust
KPH
rain 1hr
cm
rain 24hr
cm
rain mn
cm
humidity
%
barometer
mb
20260510032322 11 297 0.0 3.2 0.00 0.64 0.64 87
20260510031823 11 302 0.0 12.9 0.00 0.64 0.64 87
20260510031322 11 260 4.8 12.9 0.00 0.64 0.64 88
20260510030842 11 247 1.6 6.4 0.00 0.64 0.64 88
20260510030341 10 359 0.0 0.0 0.00 0.64 0.64 88
20260510025840 10 359 0.0 0.0 0.00 0.64 0.64 88
20260510025316 11 324 0.0 4.8 0.00 0.64 0.64 87
20260510024818 11 324 1.6 4.8 0.00 0.64 0.64 88
20260510024334 11 329 0.0 9.7 0.00 0.64 0.64 88
20260510023854 10 341 0.0 0.0 0.00 0.64 0.64 88
20260510023333 11 309 0.0 0.0 0.00 0.64 0.64 88
20260510022833 11 322 0.0 0.0 0.00 0.64 0.64 87
20260510022333 11 342 0.0 0.0 0.00 0.64 0.64 87
20260510021833 11 342 0.0 0.0 0.00 0.64 0.64 87
20260510021353 11 345 0.0 0.0 0.00 0.64 0.64 86
20260510020832 11 345 0.0 0.0 0.00 0.64 0.64 85
20260510020332 11 344 0.0 0.0 0.00 0.64 0.64 85
20260510015830 11 345 0.0 0.0 0.00 0.64 0.64 85
20260510015330 11 31 0.0 0.0 0.00 0.64 0.64 84
20260510014830 11 54 0.0 0.0 0.00 0.64 0.64 84
20260510014350 11 108 0.0 0.0 0.00 0.64 0.64 84
20260510013849 11 95 0.0 0.0 0.00 0.64 0.64 83
20260510013327 12 122 0.0 0.0 0.00 0.64 0.64 83
20260510012848 12 140 0.0 3.2 0.00 0.64 0.64 83
20260510012326 12 140 0.0 9.7 0.00 0.64 0.64 83
20260510011826 12 160 0.0 6.4 0.00 0.64 0.64 82
20260510011324 12 182 1.6 6.4 0.00 0.64 0.64 82
20260510010825 12 122 0.0 4.8 0.00 0.64 0.64 82
20260510010344 12 127 0.0 1.6 0.00 0.64 0.64 81
20260510005844 12 127 0.0 4.8 0.00 0.64 0.64 81
20260510005325 12 127 0.0 12.9 0.00 0.64 0.64 81
20260510004846 12 129 4.8 12.9 0.00 0.64 0.64 81
20260510004325 12 120 3.2 8.0 0.00 0.64 0.64 81
20260510003844 12 150 0.0 4.8 0.00 0.64 0.64 81
20260510003323 12 152 0.0 9.7 0.00 0.64 0.64 81
20260510002824 12 127 3.2 9.7 0.00 0.64 0.64 81
20260510002325 12 168 3.2 11.3 0.00 0.64 0.64 81
20260510001824 12 167 1.6 11.3 0.00 0.64 0.64 81
20260510001324 12 171 3.2 11.3 0.00 0.64 0.64 82
20260510000823 12 75 4.8 11.3 0.00 0.64 0.64 82
20260510000323 12 125 0.0 0.0 0.00 0.64 0.64 82
20260509235824 12 179 0.0 0.0 0.00 0.64 0.64 82
20260509235324 12 116 0.0 0.0 0.00 0.64 0.64 82
20260509234823 12 139 0.0 0.0 0.00 0.64 0.64 82
20260509234320 12 142 0.0 0.0 0.00 0.64 0.64 82
20260509233821 12 124 0.0 0.0 0.00 0.64 0.64 82
20260509233321 12 112 0.0 0.0 0.00 0.64 0.64 81
20260509232842 12 111 0.0 3.2 0.00 0.64 0.64 82
20260509232342 12 129 0.0 12.9 0.00 0.64 0.64 81
20260509231821 12 130 4.8 12.9 0.00 0.64 0.64 81
20260509231322 12 224 6.4 12.9 0.00 0.64 0.64 81
20260509230822 12 226 0.0 14.5 0.00 0.64 0.64 81
20260509230320 12 133 3.2 14.5 0.00 0.64 0.64 81
20260509225840 12 103 3.2 12.9 0.00 0.64 0.64 81
20260509225319 12 152 4.8 14.5 0.00 0.64 0.64 81
20260509224820 12 148 6.4 17.7 0.00 0.64 0.64 81
20260509224318 12 192 3.2 19.3 0.00 0.64 0.64 81
20260509223818 12 145 9.7 19.3 0.00 0.64 0.64 81
20260509223318 12 131 8.0 11.3 0.00 0.64 0.64 81
20260509222816 12 127 6.4 14.5 0.00 0.64 0.64 81
20260509222316 12 137 8.0 16.1 0.00 0.64 0.64 81
20260509221815 12 155 8.0 17.7 0.00 0.64 0.64 81
20260509221314 12 182 6.4 16.1 0.00 0.64 0.64 81
20260509220828 12 165 4.8 16.1 0.00 0.64 0.64 81
20260509220329 12 90 8.0 16.1 0.00 0.64 0.64 82
20260509215814 12 156 0.0 12.9 0.00 0.64 0.64 82
20260509215328 12 175 4.8 16.1 0.00 0.64 0.64 82
20260509214848 12 48 8.0 16.1 0.00 0.64 0.64 82
20260509214327 12 207 9.7 16.1 0.00 0.64 0.64 82
20260509213826 12 121 4.8 17.7 0.00 0.64 0.64 82
20260509213347 12 167 6.4 22.5 0.00 0.64 0.64 82
20260509212823 12 195 8.0 22.5 0.00 0.64 0.64 82
20260509212343 12 118 9.7 24.1 0.00 0.64 0.64 82
20260509211823 12 149 12.9 24.1 0.00 0.64 0.64 82
20260509211323 12 120 11.3 24.1 0.00 0.64 0.64 82
20260509210822 12 154 4.8 17.7 0.00 0.64 0.64 82
20260509210321 12 170 8.0 16.1 0.00 0.64 0.64 82
20260509205842 12 145 3.2 12.9 0.00 0.64 0.64 82
20260509205320 12 217 4.8 16.1 0.00 0.64 0.64 82
20260509204820 12 161 4.8 17.7 0.00 0.64 0.64 82
20260509204321 12 140 8.0 17.7 0.00 0.64 0.64 81
20260509203821 12 141 1.6 14.5 0.00 0.64 0.64 82
20260509203320 12 135 6.4 14.5 0.00 0.64 0.64 82
20260509202821 12 137 6.4 22.5 0.00 0.64 0.64 83
20260509202321 12 124 9.7 22.5 0.00 0.64 0.64 83
20260509201822 12 147 8.0 19.3 0.00 0.64 0.64 84
20260509201320 12 126 9.7 19.3 0.00 0.64 0.64 84
20260509200821 11 141 9.7 19.3 0.00 0.64 0.64 85
20260509200341 11 97 6.4 14.5 0.00 0.64 0.64 85
20260509195819 11 143 4.8 16.1 0.00 0.64 0.64 85
20260509195320 11 185 4.8 16.1 0.00 0.64 0.64 85
20260509194819 11 112 8.0 17.7 0.00 0.64 0.64 85
20260509194318 11 149 6.4 20.9 0.00 0.64 0.64 85
20260509193816 11 90 11.3 20.9 0.00 0.64 0.64 85
20260509193318 11 147 9.7 20.9 0.00 0.64 0.64 85
20260509192815 11 151 6.4 25.7 0.00 0.64 0.64 85
20260509192333 11 152 12.9 25.7 0.00 0.64 0.64 85
20260509191854 11 133 11.3 25.7 0.00 0.64 0.64 85
20260509191332 11 116 11.3 25.7 0.00 0.64 0.64 85
20260509190832 11 144 9.7 20.9 0.00 0.64 0.64 85
20260509190330 11 145 8.0 20.9 0.00 0.64 0.64 85
20260509185832 11 42 11.3 22.5 0.00 0.64 0.64 85
20260509185352 11 162 6.4 17.7 0.00 0.64 0.64 85
20260509184831 11 149 8.0 19.3 0.00 0.64 0.64 85
20260509184351 11 134 11.3 27.4 0.00 0.64 0.64 85
20260509183831 11 121 8.0 27.4 0.00 0.64 0.64 85
20260509183330 11 166 8.0 14.5 0.00 0.64 0.64 85
20260509182830 11 112 4.8 17.7 0.00 0.64 0.64 85
20260509182330 11 87 9.7 19.3 0.00 0.64 0.64 85
20260509181829 11 143 6.4 17.7 0.00 0.64 0.64 85
20260509181348 11 153 3.2 12.9 0.00 0.64 0.64 86
20260509180827 11 203 3.2 12.9 0.00 0.64 0.64 85
20260509180329 11 100 1.6 11.3 0.00 0.64 0.64 86
20260509175827 11 180 1.6 11.3 0.00 0.64 0.64 86
20260509175326 11 143 0.0 8.0 0.00 0.64 0.64 87
20260509174845 11 172 0.0 8.0 0.00 0.64 0.64 87
20260509174326 11 120 0.0 8.0 0.00 0.64 0.64 88
20260509173848 11 120 0.0 16.1 0.00 0.64 0.64 88
20260509173326 11 131 3.2 16.1 0.00 0.64 0.64 88
20260509172825 11 131 0.0 9.7 0.00 0.64 0.64 88
20260509172324 11 135 0.0 12.9 0.00 0.64 0.64 88
20260509171825 11 129 6.4 14.5 0.03 0.64 0.64 88
20260509171327 11 133 4.8 17.7 0.03 0.64 0.64 89
20260509170827 11 100 4.8 14.5 0.03 0.64 0.64 89
20260509170327 11 116 6.4 17.7 0.03 0.64 0.64 90
20260509165828 10 119 9.7 17.7 0.03 0.64 0.64 90
20260509165327 10 114 8.0 17.7 0.05 0.64 0.64 90
20260509164842 10 110 6.4 20.9 0.05 0.64 0.64 91
20260509164323 10 117 8.0 20.9 0.05 0.64 0.64 91
20260509163842 10 58 4.8 12.9 0.08 0.64 0.64 91
20260509163322 10 118 8.0 19.3 0.08 0.64 0.64 92
20260509162822 10 81 6.4 16.1 0.10 0.71 0.64 92
20260509162321 10 156 6.4 20.9 0.10 0.71 0.64 92
20260509161821 10 112 3.2 11.3 0.10 0.69 0.61 93
20260509161319 10 127 0.0 0.0 0.10 0.69 0.61 93
20260509160820 10 127 0.0 1.6 0.10 0.69 0.61 93
20260509160320 10 129 0.0 4.8 0.13 0.69 0.61 93
20260509155819 10 66 0.0 4.8 0.15 0.69 0.61 94
20260509155318 10 110 0.0 0.0 0.13 0.66 0.58 94
20260509154817 10 110 0.0 0.0 0.13 0.66 0.58 93
20260509154318 10 30 0.0 0.0 0.13 0.66 0.58 94
20260509153816 10 27 0.0 0.0 0.13 0.64 0.56 94
20260509153316 10 27 0.0 0.0 0.13 0.64 0.56 94
20260509152815 10 27 0.0 0.0 0.10 0.71 0.53 94
20260509152314 10 27 0.0 0.0 0.10 0.71 0.53 95
20260509151814 10 27 0.0 0.0 0.10 0.69 0.51 95
20260509151333 10 27 0.0 0.0 0.10 0.69 0.51 95
20260509150833 9 27 0.0 0.0 0.08 0.66 0.48 95
20260509150353 9 27 0.0 0.0 0.10 0.66 0.48 94
20260509145850 9 39 0.0 0.0 0.08 0.64 0.46 95
20260509145329 9 41 0.0 0.0 0.08 0.64 0.46 95
20260509144828 8 41 0.0 0.0 0.10 0.64 0.46 95
20260509144327 8 68 0.0 0.0 0.10 0.64 0.46 95
20260509143826 8 68 0.0 0.0 0.08 0.61 0.43 95
20260509143346 8 71 0.0 0.0 0.08 0.61 0.43 95
20260509142824 8 73 0.0 0.0 0.10 0.64 0.43 95
20260509142322 8 73 0.0 0.0 0.08 0.61 0.41 95
20260509141821 7 73 0.0 0.0 0.08 0.61 0.41 95
20260509141320 7 73 0.0 0.0 0.08 0.61 0.41 95
20260509140819 7 73 0.0 0.0 0.08 0.61 0.41 94
20260509140338 7 73 0.0 0.0 0.05 0.58 0.38 95
20260509135815 7 76 0.0 0.0 0.08 0.58 0.38 95
20260509135335 7 77 0.0 0.0 0.08 0.58 0.38 95
20260509134814 7 76 0.0 0.0 0.05 0.56 0.36 95
20260509134333 6 77 0.0 0.0 0.05 0.56 0.36 95
20260509133832 6 77 0.0 0.0 0.05 0.56 0.36 95
20260509133331 6 77 0.0 0.0 0.08 0.56 0.36 94
20260509132832 6 77 0.0 0.0 0.05 0.53 0.33 94
20260509132333 6 77 0.0 0.0 0.08 0.53 0.33 94
20260509131813 6 77 0.0 0.0 0.10 0.53 0.33 94
20260509131332 6 77 0.0 0.0 0.13 0.53 0.33 94
20260509130833 6 77 0.0 0.0 0.13 0.53 0.33 94
20260509130354 5 77 0.0 0.0 0.15 0.53 0.33 94
20260509125834 5 77 0.0 0.0 0.15 0.51 0.30 94
20260509125354 5 77 0.0 0.0 0.15 0.51 0.30 94
20260509124832 5 77 0.0 0.0 0.15 0.51 0.30 94
20260509124333 5 77 0.0 0.0 0.15 0.51 0.30 94
20260509123832 5 77 0.0 0.0 0.18 0.51 0.30 94
20260509123331 5 77 0.0 0.0 0.15 0.48 0.28 94
20260509122832 5 76 0.0 0.0 0.15 0.48 0.28 93
20260509122322 5 76 0.0 0.0 0.15 0.46 0.25 93
20260509121821 5 76 0.0 0.0 0.13 0.43 0.23 93
20260509121320 5 76 0.0 0.0 0.10 0.41 0.20 94
20260509120819 5 76 0.0 0.0 0.10 0.41 0.20 93
20260509120318 5 76 0.0 0.0 0.08 0.38 0.18 93
20260509115819 5 76 0.0 0.0 0.05 0.36 0.15 94
20260509115319 5 76 0.0 0.0 0.05 0.36 0.15 93
20260509114818 5 76 0.0 0.0 0.05 0.36 0.15 93
20260509114318 4 76 0.0 0.0 0.03 0.33 0.13 93
20260509113817 4 76 0.0 0.0 0.03 0.33 0.13 93
20260509113317 4 76 0.0 0.0 0.03 0.33 0.13 93
20260509112836 4 76 0.0 0.0 0.03 0.33 0.13 93
20260509112316 4 76 0.0 0.0 0.00 0.30 0.10 93
20260509111817 4 76 0.0 0.0 0.00 0.30 0.10 93
20260509111318 4 76 0.0 0.0 0.00 0.30 0.10 93
20260509110818 3 76 0.0 0.0 0.00 0.30 0.10 93
20260509110317 3 76 0.0 0.0 0.00 0.30 0.10 93
20260509105837 3 76 0.0 4.8 0.00 0.30 0.10 93
20260509105316 3 77 0.0 4.8 0.00 0.30 0.10 93
20260509104832 3 33 0.0 0.0 0.00 0.30 0.10 93
20260509104330 3 33 0.0 0.0 0.00 0.30 0.10 92
20260509103828 3 32 0.0 0.0 0.00 0.30 0.10 93
20260509103327 3 31 0.0 0.0 0.00 0.30 0.10 92
20260509102827 3 31 0.0 0.0 0.00 0.30 0.10 92
20260509102328 3 49 0.0 0.0 0.00 0.30 0.10 92
20260509101829 3 52 0.0 0.0 0.00 0.30 0.10 92
20260509101327 3 51 0.0 0.0 0.00 0.30 0.10 92
20260509100826 3 53 0.0 0.0 0.00 0.30 0.10 92
20260509100326 3 52 0.0 0.0 0.00 0.30 0.10 92
20260509095827 3 63 0.0 0.0 0.00 0.30 0.10 91
20260509095327 3 62 0.0 0.0 0.00 0.30 0.10 92
20260509094827 3 56 0.0 0.0 0.00 0.30 0.10 92
20260509094325 3 56 0.0 0.0 0.03 0.30 0.10 91
20260509093825 3 56 0.0 0.0 0.03 0.30 0.10 91
20260509093324 3 56 0.0 0.0 0.03 0.30 0.10 91
20260509092824 3 56 0.0 0.0 0.03 0.30 0.10 91
20260509092324 3 56 0.0 4.8 0.03 0.30 0.10 91
20260509091845 3 56 0.0 4.8 0.03 0.30 0.10 91
20260509091323 3 75 0.0 0.0 0.03 0.30 0.10 90
20260509090824 3 75 0.0 0.0 0.05 0.30 0.10 90
20260509090325 3 75 0.0 0.0 0.05 0.30 0.10 90
20260509085824 3 75 0.0 0.0 0.05 0.30 0.10 90
20260509085323 3 75 0.0 4.8 0.05 0.30 0.10 90
20260509084822 3 75 0.0 4.8 0.08 0.30 0.10 90
20260509084321 3 72 0.0 0.0 0.05 0.28 0.08 89
20260509083841 3 72 0.0 0.0 0.05 0.28 0.08 89
20260509083319 3 72 0.0 0.0 0.08 0.28 0.08 89
20260509082819 3 72 0.0 0.0 0.08 0.28 0.08 89
20260509082319 3 70 0.0 3.2 0.08 0.28 0.08 88
20260509081830 3 70 1.6 3.2 0.08 0.28 0.08 88
20260509081328 3 71 0.0 4.8 0.08 0.28 0.08 88
20260509080829 3 71 0.0 6.4 0.05 0.25 0.05 88
20260509080328 3 79 1.6 6.4 0.05 0.25 0.05 87
20260509075848 3 45 1.6 4.8 0.05 0.25 0.05 87
20260509075345 3 15 0.0 4.8 0.05 0.25 0.05 87
20260509074824 3 4 0.0 6.4 0.03 0.23 0.03 86
20260509074325 3 4 1.6 6.4 0.03 0.23 0.03 86
20260509073825 3 52 0.0 6.4 0.00 0.20 0.00 86
20260509073324 3 71 0.0 8.0 0.00 0.20 0.00 86
20260509072823 3 79 1.6 8.0 0.00 0.20 0.00 86
20260509072325 3 25 0.0 0.0 0.00 0.20 0.00 85
20260509071828 3 31 0.0 0.0 0.00 0.20 0.00 85
20260509071326 3 39 0.0 0.0 0.00 0.20 0.00 85
20260509070826 3 39 0.0 0.0 0.00 0.20 0.00 85
20260509070345 3 38 0.0 0.0 0.00 0.20 0.00 85
20260509065823 3 46 0.0 0.0 0.00 0.20 0.00 85
20260509065342 3 50 0.0 0.0 0.00 0.20 0.00 84
20260509064820 3 60 0.0 0.0 0.00 0.20 0.00 84
20260509064321 3 10 0.0 0.0 0.00 0.20 0.00 84
20260509063822 3 10 0.0 0.0 0.00 0.20 0.00 84
20260509063323 3 9 0.0 0.0 0.00 0.20 0.00 84
20260509062844 3 10 0.0 0.0 0.00 0.20 0.00 84
20260509062322 3 9 0.0 0.0 0.00 0.20 0.00 84
20260509061822 3 9 0.0 0.0 0.00 0.20 0.00 84
20260509061324 3 11 0.0 0.0 0.00 0.20 0.00 84
20260509060823 3 10 0.0 0.0 0.00 0.20 0.00 84
20260509060323 3 10 0.0 0.0 0.00 0.20 0.00 83
20260509055843 3 11 0.0 0.0 0.00 0.20 0.00 83
20260509055322 3 11 0.0 0.0 0.00 0.20 0.00 83
20260509054822 3 11 0.0 0.0 0.00 0.20 0.00 83
20260509054322 3 12 0.0 0.0 0.00 0.20 0.00 83
20260509053822 3 4 0.0 0.0 0.00 0.20 0.00 83
20260509053322 3 4 0.0 0.0 0.00 0.20 0.00 83
20260509052823 3 4 0.0 0.0 0.00 0.20 0.20 82
20260509052321 3 4 0.0 0.0 0.00 0.20 0.20 82
20260509051842 3 4 0.0 0.0 0.00 0.20 0.20 82
20260509051320 3 4 0.0 0.0 0.00 0.20 0.20 81
20260509050819 3 8 0.0 0.0 0.00 0.20 0.20 81
20260509050318 3 8 0.0 0.0 0.00 0.20 0.20 81
20260509045817 3 8 0.0 0.0 0.00 0.20 0.20 81
20260509045317 3 4 0.0 0.0 0.00 0.20 0.20 81
20260509044817 3 337 0.0 0.0 0.00 0.20 0.20 80
20260509044316 3 337 0.0 0.0 0.00 0.20 0.20 80
20260509043835 4 337 0.0 0.0 0.00 0.20 0.20 80
20260509043328 4 337 0.0 0.0 0.00 0.20 0.20 80
20260509042827 4 337 0.0 0.0 0.00 0.20 0.20 80
20260509042328 4 337 0.0 0.0 0.00 0.20 0.20 80
20260509041814 4 336 0.0 0.0 0.00 0.20 0.20 79
20260509041330 5 354 0.0 0.0 0.00 0.20 0.20 79
20260509040814 5 4 0.0 0.0 0.00 0.20 0.20 78
20260509040316 5 4 0.0 0.0 0.00 0.20 0.20 77
20260509035816 5 26 0.0 0.0 0.00 0.20 0.20 77
20260509035316 5 26 0.0 0.0 0.00 0.20 0.20 76
20260509034815 5 26 0.0 0.0 0.00 0.20 0.20 76
20260509034316 5 29 0.0 0.0 0.00 0.20 0.20 74
20260509033815 5 29 0.0 0.0 0.00 0.20 0.20 74
20260509033329 6 29 0.0 0.0 0.00 0.20 0.20 73
20260509032814 6 29 0.0 0.0 0.00 0.20 0.20 73